Tracking 34794 objects as of 19-Jul-2026
HD Live streaming from Space Station
objects crossing your sky now

CZ-4 DEB

Track CZ-4 DEB now!
10-day predictions


NORAD ID: 20884
Int'l Code: 1990-081AU
Perigee: 799.8 km
Apogee: 837.8 km
Inclination: 98.5 °
Period: 101.1 minutes
Semi major axis: 7189 km
RCS: 0.0546 m2 (small)
Launch date: September 3, 1990
Source: People's Republic of China (PRC)
Launch site: Taiyaun Space Center, China (TSC)

Note: This is SATELLITE DEBRIS
Your satellite tracking list
Your tracking list is empty




NASA's NSSDC Master Catalog

Two Line Element Set (TLE):
1 20884U 90081AU  26200.00152483  .00000679  00000-0  31255-3 0  9994
2 20884  98.4911 205.0418 0026413 177.2826 182.8501 14.24067716659952
Source of the keplerian elements: AFSPC